Probability
0 0 100 100 100 100 100 100 100 100 100 100 97 71 77 97 100 100 100 97 97 90 97 100 100 100 100 100 100 100 100 100 100 100 100 100 100 100 97 90 97 94 100
0 0 100 100 100 100 100 100 100 100 100 100 100 97 97 94 90 100 100 100 97 94 97 100 100 100 100 100 100 100 100 100 100 100 100 100 100 97 100 100 97 94 100
0 26 100 100 100 100 100 100 100 100 100 100 100 97 97 90 97 100 100 100 100 100 97 97 100 100 100 100 100 100 100 100 100 100 100 100 100 94 97 100 100 100 100
0 77 100 100 100 100 100 100 100 100 100 100 100 100 97 90 100 100 100 100 100 100 90 87 94 100 100 100 100 100 100 100 100 100 94 97 100 100 97 100 100 100 100
0 94 100 100 100 100 100 100 100 100 100 100 100 100 97 100 100 100 100 100 100 90 68 71 74 81 97 100 100 100 100 97 100 90 84 97 100 100 100 100 100 100 100
13 84 100 100 100 100 100 100 100 100 100 100 100 100 100 100 100 100 100 100 97 71 42 19 32 65 100 100 100 100 100 100 58 6 68 97 100 100 100 100 100 100 100
13 65 100 100 100 100 100 100 100 100 100 100 100 100 100 100 100 100 100 100 84 35 6 10 45 81 94 100 100 100 100 100 0 3 23 87 100 100 100 100 100 100 100
13 71 97 100 100 100 100 100 100 100 100 100 100 100 100 100 100 100 100 97 58 10 3 35 84 90 97 100 100 100 97 74 6 3 3 58 100 100 100 100 100 100 100
3 26 81 100 100 100 100 100 100 100 100 100 100 100 100 100 100 100 100 81 16 0 19 58 87 94 100 100 100 100 100 90 0 3 3 13 94 94 100 100 100 100 100
3 10 32 68 97 97 100 100 100 100 100 100 100 100 100 100 100 100 97 42 0 0 13 48 87 97 100 100 90 90 81 10 0 3 3 52 68 84 90 97 100 100 100
0 3 3 16 26 65 94 100 100 100 100 100 100 100 100 74 87 100 87 23 0 0 13 58 74 77 97 87 65 39 6 0 0 6 16 90 65 71 84 97 97 97 100
0 6 0 0 3 10 87 90 65 77 71 71 52 68 6 0 3 61 87 32 0 3 42 61 16 23 3 0 0 0 0 0 0 6 61 94 87 84 87 97 97 97 100
0 6 6 0 0 0 19 6 3 0 0 0 6 6 0 0 0 3 0 0 0 0 0 0 0 0 0 0 0 0 0 0 0 3 45 100 100 100 100 97 97 100 100
0 0 6 3 0 0 0 3 0 0 0 0 0 3 0 0 0 0 0 0 0 0 0 0 0 0 0 0 0 0 0 0 0 0 26 100 100 100 100 100 100 100 100
0 6 6 10 0 0 0 3 0 0 0 0 0 0 0 0 0 0 0 0 0 0 0 0 0 0 0 0 0 0 0 0 0 0 0 100 100 97 100 100 100 100 100
0 6 6 10 3 0 0 3 3 0 0 0 0 0 0 0 0 0 0 0 0 0 0 0 0 0 0 0 0 0 0 0 0 0 0 0 94 100 100 100 100 100 100
0 10 10 6 3 0 0 3 3 0 0 0 0 0 0 0 0 0 0 0 0 0 0 0 0 0 0 0 0 0 0 0 0 0 0 0 0 13 84 97 100 97 90
0 3 13 39 13 3 0 0 0 0 0 0 0 0 0 0 0 0 0 0 0 0 0 0 0 0 0 0 0 0 0 0 0 0 0 0 0 0 0 16 39 68 94
0 0 6 13 16 3 3 0 0 0 0 0 0 0 0 0 0 0 0 0 0 0 0 0 0 0 0 0 0 0 0 0 0 0 0 0 0 0 0 0 0 0 3
0 0 3 6 10 3 0 0 0 0 0 0 0 0 0 0 0 0 0 0 0 0 0 0 0 0 0 0 0 0 0 0 0 0 0 0 0 0 0 0 0 0 0
0 0 0 0 0 0 0 0 0 0 0 0 0 0 0 0 0 0 0 0 0 0 0 0 0 0 0 0 0 0 0 0 0 0 0 0 0 0 0 0 0 0 0
0 0 0 0 0 0 0 0 0 0 0 0 0 0 0 0 0 0 0 0 0 0 0 0 0 0 0 0 0 0 0 0 0 0 0 0 0 0 0 0 0 0 0
0 0 0 0 0 0 0 0 0 0 0 0 0 0 0 0 0 0 0 0 0 0 0 0 0 0 0 0 0 0 0 0 0 0 0 0 0 0 0 0 0 0 0
0 0 0 0 0 0 0 0 0 0 0 0 0 0 0 0 0 0 0 0 0 0 0 0 0 0 0 0 0 0 0 0 0 0 0 0 0 0 0 0 0 0 0
0 0 0 0 0 0 0 0 0 0 0 0 0 0 0 0 0 0 0 0 0 0 0 0 0 0 0 0 0 0 0 0 0 0 0 0 0 0 0 0 0 0 0
0 0 0 0 0 0 0 0 0 0 0 0 0 0 0 0 0 0 0 0 0 0 0 0 0 0 0 0 0 0 0 0 0 0 0 0 0 0 0 0 0 0 0
Height
5886 5885 5884 5883 5881 5880 5879 5878 5877 5875 5874 5874 5873 5873 5872 5871 5870 5870 5869 5868 5866 5865 5866 5869 5872 5875 5878 5880 5882 5884 5885 5886 5887 5887 5889 5890 5891 5891 5891 5892 5893 5894 5896
5885 5884 5884 5883 5881 5880 5878 5877 5876 5875 5874 5873 5873 5872 5871 5870 5869 5869 5868 5867 5867 5866 5866 5868 5871 5874 5876 5878 5880 5882 5883 5885 5886 5887 5889 5890 5891 5891 5892 5892 5893 5894 5896
5885 5884 5883 5882 5881 5880 5878 5877 5875 5874 5874 5873 5872 5871 5870 5869 5868 5868 5867 5867 5867 5867 5867 5868 5870 5872 5875 5877 5879 5880 5882 5883 5885 5887 5888 5890 5891 5891 5892 5893 5894 5895 5896
5885 5884 5883 5882 5881 5880 5878 5876 5874 5873 5873 5873 5872 5870 5869 5868 5867 5867 5867 5867 5867 5867 5868 5869 5870 5872 5874 5876 5878 5880 5881 5883 5884 5886 5888 5889 5891 5891 5892 5893 5893 5895 5896
5884 5883 5882 5881 5880 5879 5877 5875 5874 5873 5872 5871 5871 5870 5869 5868 5867 5866 5866 5867 5867 5867 5868 5869 5871 5872 5873 5876 5878 5879 5881 5882 5884 5886 5887 5889 5890 5891 5892 5893 5893 5894 5895
5883 5882 5881 5880 5879 5878 5876 5874 5873 5872 5871 5870 5870 5869 5868 5867 5866 5865 5865 5866 5866 5867 5868 5869 5870 5871 5872 5875 5877 5879 5881 5882 5884 5885 5887 5888 5889 5890 5891 5891 5892 5892 5893
5882 5881 5880 5879 5878 5876 5875 5873 5872 5870 5870 5869 5869 5868 5867 5866 5866 5865 5865 5865 5865 5866 5867 5868 5869 5870 5871 5873 5876 5878 5880 5882 5883 5885 5886 5887 5888 5888 5889 5889 5890 5890 5891
5882 5881 5880 5878 5877 5875 5873 5872 5870 5869 5868 5868 5867 5866 5865 5865 5865 5864 5864 5864 5864 5865 5866 5867 5867 5868 5870 5872 5874 5876 5878 5880 5882 5883 5884 5885 5885 5886 5887 5888 5888 5889 5889
5881 5880 5879 5877 5875 5873 5871 5870 5869 5868 5866 5866 5865 5864 5863 5863 5863 5862 5862 5862 5862 5863 5864 5864 5865 5866 5868 5870 5873 5875 5877 5879 5880 5882 5883 5883 5883 5884 5885 5887 5888 5888 5889
5880 5879 5877 5875 5872 5871 5869 5868 5867 5866 5865 5864 5862 5861 5861 5861 5860 5860 5860 5860 5860 5860 5861 5862 5863 5864 5866 5868 5870 5873 5875 5877 5878 5880 5881 5881 5882 5882 5884 5886 5887 5888 5889
5878 5876 5874 5872 5870 5868 5867 5866 5865 5863 5862 5861 5860 5859 5859 5858 5858 5858 5858 5857 5858 5858 5859 5859 5860 5862 5864 5866 5868 5870 5872 5874 5875 5877 5878 5879 5880 5881 5883 5885 5886 5888 5889
5875 5874 5872 5870 5868 5866 5864 5863 5862 5861 5859 5859 5858 5857 5856 5855 5855 5855 5855 5855 5856 5856 5857 5857 5859 5860 5862 5863 5865 5867 5869 5871 5872 5874 5875 5876 5877 5879 5881 5883 5885 5887 5889
5873 5871 5869 5867 5865 5863 5861 5860 5859 5858 5856 5856 5855 5854 5853 5852 5852 5853 5853 5853 5854 5854 5855 5855 5857 5858 5859 5860 5862 5864 5866 5868 5869 5870 5872 5873 5874 5876 5878 5881 5883 5885 5887
5870 5868 5866 5864 5862 5860 5858 5857 5856 5854 5853 5852 5852 5851 5850 5850 5850 5851 5851 5852 5852 5853 5853 5854 5855 5856 5857 5858 5859 5861 5863 5865 5866 5867 5868 5870 5871 5873 5875 5878 5881 5883 5886
5867 5865 5863 5861 5859 5857 5855 5853 5852 5851 5850 5849 5848 5847 5847 5847 5847 5848 5849 5850 5850 5851 5852 5853 5853 5854 5856 5856 5857 5858 5860 5861 5863 5864 5865 5867 5869 5871 5873 5875 5878 5881 5884
5864 5862 5859 5857 5855 5853 5851 5849 5848 5847 5846 5845 5845 5845 5844 5844 5844 5846 5847 5847 5848 5849 5851 5852 5852 5853 5854 5855 5855 5856 5857 5858 5860 5861 5863 5865 5867 5869 5871 5873 5875 5878 5881
5861 5859 5856 5854 5852 5849 5847 5846 5845 5844 5843 5842 5842 5842 5842 5842 5842 5843 5844 5845 5846 5847 5849 5850 5851 5851 5852 5853 5854 5854 5855 5856 5857 5858 5860 5862 5864 5867 5869 5871 5873 5876 5878
5858 5855 5853 5850 5848 5846 5844 5843 5841 5841 5840 5839 5838 5838 5839 5839 5839 5840 5841 5842 5843 5844 5846 5848 5849 5850 5851 5852 5852 5852 5853 5854 5855 5856 5858 5860 5862 5865 5867 5869 5872 5874 5876
5854 5852 5849 5847 5845 5843 5841 5839 5838 5838 5837 5836 5835 5835 5835 5836 5836 5837 5838 5840 5841 5842 5844 5846 5847 5849 5849 5850 5851 5851 5851 5852 5853 5855 5857 5859 5861 5863 5866 5869 5871 5873 5875
5849 5847 5845 5843 5841 5839 5837 5835 5835 5834 5833 5833 5832 5831 5832 5832 5833 5834 5835 5837 5838 5840 5841 5843 5845 5847 5848 5849 5850 5850 5851 5851 5851 5853 5855 5857 5860 5862 5865 5867 5869 5871 5873
5845 5843 5840 5838 5837 5835 5833 5832 5831 5830 5829 5829 5828 5828 5828 5829 5829 5830 5831 5833 5835 5836 5838 5840 5842 5844 5845 5847 5848 5849 5850 5851 5851 5852 5853 5856 5858 5860 5862 5865 5867 5869 5870
5840 5838 5836 5834 5832 5830 5829 5828 5827 5826 5825 5825 5824 5823 5823 5824 5825 5826 5827 5828 5830 5832 5835 5836 5839 5841 5843 5845 5846 5847 5849 5850 5850 5851 5853 5854 5856 5857 5859 5862 5864 5866 5868
5834 5832 5830 5828 5826 5825 5823 5822 5822 5821 5821 5820 5819 5819 5819 5819 5819 5820 5821 5822 5824 5827 5830 5832 5835 5838 5840 5842 5844 5846 5847 5848 5849 5850 5851 5853 5854 5856 5857 5859 5861 5863 5865
5828 5826 5824 5822 5820 5818 5817 5816 5815 5815 5814 5814 5814 5814 5813 5813 5813 5813 5814 5816 5819 5822 5825 5828 5831 5834 5836 5839 5841 5843 5845 5846 5847 5848 5849 5851 5852 5853 5855 5856 5858 5859 5861
5823 5821 5818 5816 5814 5812 5811 5809 5808 5807 5807 5807 5807 5808 5807 5807 5806 5806 5808 5810 5813 5816 5819 5823 5827 5829 5832 5835 5838 5840 5841 5843 5844 5845 5846 5848 5849 5851 5852 5854 5855 5856 5858
5817 5814 5812 5809 5807 5805 5804 5802 5801 5800 5800 5800 5800 5801 5801 5800 5800 5800 5801 5804 5807 5810 5813 5817 5821 5824 5827 5830 5833 5835 5837 5839 5840 5841 5843 5844 5845 5847 5849 5850 5852 5853 5854
Wind_Speed
8 9 11 11 13 13 13 13 11 10 7 6 5 6 6 7 7 7 7 7 5 7 11 14 15 15 15 14 12 10 8 6 6 5 3 2 3 3 2 5 10 14 14
7 9 10 11 12 13 12 12 12 10 8 6 5 6 8 8 8 7 6 5 4 2 6 12 14 13 13 13 13 12 10 8 6 5 3 3 3 3 2 0 4 7 11
6 8 9 10 12 12 13 13 12 11 8 6 6 8 8 8 8 7 7 5 3 2 2 7 11 11 10 10 10 10 9 8 7 6 4 3 3 3 3 3 4 6 9
4 6 7 9 11 12 13 14 14 11 9 7 7 7 7 8 8 8 8 6 4 3 1 2 5 6 6 7 7 8 7 7 7 6 5 4 4 3 3 4 5 6 9
2 3 5 7 10 11 13 15 15 13 10 8 8 7 7 8 8 8 9 8 6 5 4 3 3 4 6 7 7 7 8 8 7 6 5 5 5 5 5 5 7 8 10
3 4 5 8 10 11 13 14 16 15 11 9 9 8 7 7 8 8 8 8 8 7 6 6 6 6 7 8 8 8 8 9 8 8 7 8 9 10 9 8 9 10 11
5 6 7 9 11 13 13 15 17 16 12 10 10 10 9 8 7 8 8 9 10 10 10 10 9 9 9 9 9 9 10 10 10 9 9 10 12 13 12 11 10 10 11
6 8 10 12 14 15 14 15 17 17 14 12 10 10 10 9 8 9 10 11 11 12 13 13 12 11 11 11 11 11 12 12 11 11 10 11 11 12 12 10 8 7 8
6 9 12 13 15 16 15 15 18 18 15 13 12 11 9 8 9 10 11 12 12 12 13 14 14 13 13 13 13 13 13 13 13 12 11 11 10 10 10 10 8 7 7
6 10 12 13 15 16 15 14 17 18 17 14 13 13 11 9 9 10 11 11 11 11 12 14 15 14 14 13 14 14 15 14 14 13 13 11 10 10 10 10 9 8 8
8 11 13 14 16 16 15 14 16 18 17 14 13 14 13 12 10 9 9 10 10 11 12 13 14 14 15 15 15 15 15 15 15 14 14 13 12 11 12 11 9 8 9
11 13 15 16 17 18 17 15 16 17 16 15 14 14 14 13 11 9 9 9 10 11 12 13 13 13 15 16 17 18 17 17 16 16 16 15 14 13 14 13 12 11 11
12 15 16 18 19 20 19 18 16 16 16 16 15 14 14 13 12 10 8 10 10 11 12 12 12 12 13 14 15 16 17 18 17 17 16 15 15 14 15 16 14 13 13
15 17 18 20 21 22 22 21 19 17 15 15 15 13 12 12 12 10 9 9 10 11 12 12 11 11 11 12 13 14 14 14 14 14 14 14 14 14 15 16 16 15 15
16 18 20 21 22 23 23 23 22 18 16 14 14 12 10 11 12 11 10 9 10 11 12 12 10 9 8 9 11 14 14 13 13 12 12 13 13 14 14 15 16 16 17
17 19 21 22 24 24 24 25 23 20 16 12 12 12 11 11 12 12 11 10 11 12 13 12 10 8 6 6 8 11 13 12 12 12 13 13 12 12 13 14 16 17 18
16 18 20 22 24 25 25 24 22 20 16 12 11 12 12 11 13 13 13 12 12 12 13 12 10 9 6 5 5 7 9 9 10 11 13 13 13 13 12 14 16 18 19
17 18 19 21 24 24 24 22 20 18 16 14 12 12 12 12 13 14 14 13 13 13 13 13 12 11 8 6 5 5 6 7 8 10 12 13 14 14 14 14 14 15 15
18 18 19 21 23 24 22 18 15 13 14 14 13 12 12 13 13 14 15 14 14 14 15 14 13 12 9 7 5 3 4 6 8 9 11 13 14 15 14 14 13 13 12
17 18 20 21 23 22 19 16 14 14 15 15 14 13 12 13 13 15 16 16 15 15 16 16 14 13 11 8 5 2 2 4 6 7 9 11 13 15 15 15 15 14 13
18 19 20 21 22 22 20 18 17 17 17 17 16 15 15 15 16 17 18 18 18 18 17 17 15 15 13 10 7 5 4 4 5 5 7 9 12 13 15 16 18 18 17
20 20 21 21 22 22 21 20 19 19 19 19 18 18 18 19 20 21 23 23 22 21 20 19 18 17 16 13 10 8 7 7 7 6 6 7 10 12 14 15 16 17 19
21 21 21 22 22 21 21 21 21 21 21 21 20 21 21 22 23 24 25 27 26 25 23 22 20 19 18 16 13 11 11 11 11 10 9 8 8 10 12 13 15 16 17
22 22 22 21 21 21 22 23 24 24 23 22 22 22 22 22 24 25 27 28 29 29 27 25 22 21 21 19 16 14 13 13 13 14 13 12 10 10 11 12 13 15 16
23 23 22 21 21 21 22 24 24 23 22 22 23 23 23 23 23 24 26 29 30 31 30 28 26 25 24 22 20 18 17 16 15 15 15 15 15 15 13 13 13 14 15
24 24 24 23 22 22 22 21 21 20 20 21 22 24 24 23 22 22 24 27 30 32 32 31 29 28 27 26 24 22 21 19 18 16 16 16 17 17 16 15 14 15 15
Wind_Direction
47 47 36 24 16 13 12 9 6 12 16 8 352 343 333 323 314 309 314 318 305 257 236 225 220 214 215 217 218 222 222 227 242 245 252 262 297 323 317 201 192 191 183
58 56 42 24 14 8 5 2 359 3 9 5 354 341 327 318 309 303 305 317 321 290 231 221 215 214 214 217 219 220 217 220 232 232 232 244 262 294 326 93 182 183 178
64 60 46 25 12 2 356 354 351 354 360 358 347 338 329 318 304 295 294 301 306 316 208 209 211 202 199 204 212 213 207 210 219 218 217 230 244 260 276 262 222 205 194
62 57 41 21 9 358 351 348 344 344 348 346 340 336 330 320 300 287 285 283 278 271 239 199 199 185 188 205 218 218 209 205 208 209 209 219 237 255 272 268 243 230 213
21 32 26 9 359 352 347 344 341 339 336 335 330 325 319 324 309 289 283 276 265 251 237 227 221 209 207 213 222 218 208 205 205 207 208 220 236 253 271 275 263 245 221
352 357 2 355 349 344 342 341 338 337 330 319 319 315 303 310 311 297 285 273 263 251 239 235 236 234 229 226 223 216 208 208 213 223 233 246 254 260 266 271 267 253 224
341 351 350 347 344 340 340 341 338 335 328 316 312 308 295 291 296 291 281 273 263 252 242 236 237 239 239 236 228 216 209 212 223 239 255 265 267 262 262 263 262 253 221
338 351 351 347 346 343 338 337 337 334 326 317 311 303 292 287 287 282 276 269 260 250 242 238 238 241 241 237 229 218 214 220 232 248 262 271 273 264 255 246 242 233 205
333 348 352 348 348 345 338 332 333 330 324 316 307 297 288 286 291 291 280 268 260 250 241 238 239 241 240 236 228 224 226 233 242 252 261 269 270 257 239 225 213 195 185
320 340 344 348 348 344 336 329 328 326 322 315 305 294 286 283 292 298 287 270 260 250 240 238 239 237 236 233 228 228 232 240 247 252 257 263 259 242 225 213 202 192 183
316 334 339 343 347 345 335 324 323 322 319 314 306 293 285 280 282 289 287 270 257 247 241 241 241 239 236 234 232 231 234 240 248 253 256 257 250 233 219 210 203 196 189
317 331 337 339 341 341 335 323 318 318 313 309 306 295 283 276 273 275 278 266 253 242 239 243 246 246 241 238 237 237 238 242 245 251 254 250 241 229 217 210 208 202 194
320 331 336 334 334 334 331 322 314 313 309 305 304 298 284 272 264 260 264 260 248 239 239 244 248 247 243 238 237 238 239 241 244 248 248 242 232 223 215 211 209 204 198
321 327 333 333 332 331 327 321 317 312 310 304 302 299 284 268 255 247 248 249 237 236 240 243 246 247 244 240 238 237 237 241 244 243 239 232 223 215 210 209 207 205 205
317 324 329 332 332 328 322 316 315 314 310 305 300 297 284 267 250 241 237 237 232 235 241 244 245 244 249 248 242 239 239 244 246 239 230 221 215 211 209 207 208 210 213
313 321 325 329 332 326 318 313 312 312 310 300 297 294 284 269 254 244 234 232 229 232 238 243 238 233 241 255 247 239 237 240 242 236 229 222 217 214 213 213 214 218 221
308 315 321 326 329 325 319 312 308 306 304 301 296 289 281 271 259 248 234 230 225 226 233 235 235 234 242 261 263 245 238 237 237 232 228 224 218 214 214 214 215 219 223
303 311 318 323 323 320 317 311 306 303 298 298 296 287 277 269 258 247 235 230 225 223 228 231 238 240 242 257 268 263 247 235 229 224 222 220 216 212 213 213 213 215 219
300 309 315 319 319 317 314 309 304 301 300 301 297 292 275 265 255 246 238 232 227 225 229 231 240 240 237 243 250 278 254 232 224 220 218 217 215 213 214 217 216 216 216
299 307 312 314 313 311 307 304 302 300 302 302 299 291 276 268 257 246 241 235 230 227 229 233 237 235 233 227 222 229 221 219 219 218 218 216 214 215 218 222 223 222 221
298 303 307 309 307 301 297 295 294 296 298 296 295 291 280 273 266 254 243 238 234 230 229 230 232 233 231 222 220 221 218 215 215 212 215 217 215 215 219 224 228 229 228
296 301 305 306 303 296 290 288 288 289 290 288 287 285 280 272 270 264 250 240 237 232 227 226 228 233 231 222 219 224 229 225 227 223 213 213 218 219 220 222 229 233 233
295 300 303 304 302 296 290 287 287 286 283 279 275 276 276 273 269 264 252 242 236 231 227 226 228 235 233 226 221 224 233 230 233 233 228 222 221 225 225 226 230 234 237
294 297 299 300 298 295 291 289 287 284 279 273 270 270 273 272 266 260 249 241 235 231 229 227 229 234 231 229 227 228 235 237 237 241 238 236 233 230 229 231 233 236 239
293 295 295 294 292 291 289 287 285 281 275 270 267 267 271 271 265 257 246 237 234 233 230 228 228 230 230 231 233 234 237 240 239 240 242 241 239 234 232 234 238 241 244
295 296 294 292 289 288 287 286 284 280 275 268 265 265 268 269 263 252 242 236 234 233 230 228 228 229 230 231 234 236 239 242 241 239 239 241 241 238 236 238 242 245 246